Time,TemperatureF,DewpointF,PressureIn,WindDirection,WindDirectionDegrees,WindSpeedMPH,WindSpeedGustMPH,Humidity,HourlyPrecipIn,Conditions,Clouds,dailyrainin,SoftwareType,DateUTC
2013-07-24 00:00:00,70.8,68.0,29.84,ENE,76,3.0,-999.0,90,-99.99,,,0.05,weatherlink.com 1.10,2013-07-24 05:00:00,
2013-07-24 00:15:00,70.5,68.0,29.83,ESE,119,6.0,-999.0,90,-99.99,,,0.00,weatherlink.com 1.10,2013-07-24 05:15:00,
2013-07-24 00:30:00,70.3,68.0,29.82,East,98,0.0,-999.0,91,-99.99,,,0.00,weatherlink.com 1.10,2013-07-24 05:30:00,
2013-07-24 00:45:00,70.4,68.0,29.81,SE,144,0.0,-999.0,91,-99.99,,,0.00,weatherlink.com 1.10,2013-07-24 05:45:00,
2013-07-24 01:00:00,70.3,68.0,29.81,SE,144,0.0,-999.0,92,-99.99,,,0.00,weatherlink.com 1.10,2013-07-24 06:00:00,
2013-07-24 01:15:00,70.8,68.0,29.80,SE,145,0.0,-999.0,90,-99.99,,,0.00,weatherlink.com 1.10,2013-07-24 06:15:00,
2013-07-24 01:30:00,69.8,67.0,29.79,SSE,149,0.0,-999.0,92,-99.99,,,0.00,weatherlink.com 1.10,2013-07-24 06:30:00,
2013-07-24 01:45:00,69.2,67.0,29.78,West,264,0.0,-999.0,93,-99.99,,,0.00,weatherlink.com 1.10,2013-07-24 06:45:00,
2013-07-24 02:00:00,69.0,67.0,29.79,West,261,2.0,-999.0,94,-99.99,,,0.00,weatherlink.com 1.10,2013-07-24 07:00:00,
2013-07-24 02:15:00,69.0,67.0,29.78,West,266,0.0,-999.0,94,-99.99,,,0.00,weatherlink.com 1.10,2013-07-24 07:15:00,
2013-07-24 02:31:00,68.9,68.0,29.80,West,265,0.0,-999.0,95,-99.99,,,0.00,weatherlink.com 1.10,2013-07-24 07:31:00,
2013-07-24 02:46:00,68.7,67.0,29.81,West,266,0.0,-999.0,95,-99.99,,,0.00,weatherlink.com 1.10,2013-07-24 07:46:00,
2013-07-24 03:01:00,68.6,67.0,29.79,West,266,0.0,-999.0,95,-99.99,,,0.00,weatherlink.com 1.10,2013-07-24 08:01:00,
2013-07-24 03:16:00,68.6,67.0,29.79,West,266,0.0,-999.0,95,-99.99,,,0.00,weatherlink.com 1.10,2013-07-24 08:16:00,
2013-07-24 03:31:00,68.5,67.0,29.79,West,266,0.0,-999.0,95,-99.99,,,0.00,weatherlink.com 1.10,2013-07-24 08:31:00,
2013-07-24 03:46:00,68.4,67.0,29.80,West,265,0.0,-999.0,95,-99.99,,,0.00,weatherlink.com 1.10,2013-07-24 08:46:00,
2013-07-24 04:01:00,68.3,67.0,29.80,West,266,0.0,-999.0,96,-99.99,,,0.00,weatherlink.com 1.10,2013-07-24 09:01:00,
2013-07-24 04:16:00,68.2,67.0,29.80,West,265,0.0,-999.0,96,-99.99,,,0.00,weatherlink.com 1.10,2013-07-24 09:16:00,
2013-07-24 04:31:00,68.2,67.0,29.81,West,266,0.0,-999.0,96,-99.99,,,0.00,weatherlink.com 1.10,2013-07-24 09:31:00,
2013-07-24 04:46:00,68.2,67.0,29.82,West,265,0.0,-999.0,96,-99.99,,,0.00,weatherlink.com 1.10,2013-07-24 09:46:00,
2013-07-24 05:01:00,68.3,67.0,29.82,West,265,0.0,-999.0,96,-99.99,,,0.00,weatherlink.com 1.10,2013-07-24 10:01:00,
2013-07-24 05:16:00,68.1,67.0,29.82,West,266,0.0,-999.0,96,-99.99,,,0.00,weatherlink.com 1.10,2013-07-24 10:16:00,
2013-07-24 05:31:00,68.1,67.0,29.82,West,266,0.0,-999.0,96,-99.99,,,0.00,weatherlink.com 1.10,2013-07-24 10:31:00,
2013-07-24 05:46:00,68.1,67.0,29.82,West,266,0.0,-999.0,97,-99.99,,,0.00,weatherlink.com 1.10,2013-07-24 10:46:00,
2013-07-24 06:01:00,68.0,67.0,29.83,West,266,0.0,-999.0,97,-99.99,,,0.00,weatherlink.com 1.10,2013-07-24 11:01:00,
2013-07-24 06:16:00,68.2,67.0,29.83,West,266,0.0,-999.0,97,-99.99,,,0.00,weatherlink.com 1.10,2013-07-24 11:16:00,
2013-07-24 06:31:00,68.6,68.0,29.83,West,266,0.0,-999.0,97,-99.99,,,0.00,weatherlink.com 1.10,2013-07-24 11:31:00,
2013-07-24 06:46:00,69.0,68.0,29.84,West,266,0.0,-999.0,97,-99.99,,,0.00,weatherlink.com 1.10,2013-07-24 11:46:00,
2013-07-24 07:01:00,69.6,69.0,29.84,West,266,0.0,-999.0,97,-99.99,,,0.00,weatherlink.com 1.10,2013-07-24 12:01:00,
2013-07-24 07:16:00,69.9,69.0,29.85,West,266,0.0,-999.0,97,-99.99,,,0.00,weatherlink.com 1.10,2013-07-24 12:16:00,
2013-07-24 07:31:00,70.2,69.0,29.85,WNW,287,0.0,-999.0,97,-99.99,,,0.00,weatherlink.com 1.10,2013-07-24 12:31:00,
2013-07-24 07:46:00,70.5,70.0,29.85,NNE,25,0.0,-999.0,97,-99.99,,,0.00,weatherlink.com 1.10,2013-07-24 12:46:00,
2013-07-24 08:01:00,70.6,70.0,29.85,ENE,61,1.0,-999.0,97,-99.99,,,0.00,weatherlink.com 1.10,2013-07-24 13:01:00,
2013-07-24 08:16:00,70.6,70.0,29.86,NE,34,0.0,-999.0,96,-99.99,,,0.00,weatherlink.com 1.10,2013-07-24 13:16:00,
2013-07-24 08:30:00,71.0,70.0,29.86,NE,38,0.0,-999.0,95,-99.99,,,0.00,weatherlink.com 1.10,2013-07-24 13:30:00,
2013-07-24 08:45:00,71.5,69.0,29.86,NNE,21,5.0,-999.0,92,-99.99,,,0.00,weatherlink.com 1.10,2013-07-24 13:45:00,
2013-07-24 09:00:00,72.3,70.0,29.87,NE,41,0.0,-999.0,91,-99.99,,,0.00,weatherlink.com 1.10,2013-07-24 14:00:00,
2013-07-24 09:15:00,72.1,69.0,29.87,ENE,78,8.0,-999.0,90,-99.99,,,0.00,weatherlink.com 1.10,2013-07-24 14:15:00,
2013-07-24 09:30:00,72.6,70.0,29.86,NNE,32,2.0,-999.0,90,-99.99,,,0.00,weatherlink.com 1.10,2013-07-24 14:30:00,
2013-07-24 09:45:00,73.1,70.0,29.86,ENE,68,0.0,-999.0,91,-99.99,,,0.00,weatherlink.com 1.10,2013-07-24 14:45:00,
2013-07-24 10:00:00,73.9,71.0,29.87,ENE,68,0.0,-999.0,89,-99.99,,,0.00,weatherlink.com 1.10,2013-07-24 15:00:00,
2013-07-24 10:15:00,74.3,71.0,29.87,ENE,78,0.0,-999.0,88,-99.99,,,0.00,weatherlink.com 1.10,2013-07-24 15:15:00,
2013-07-24 10:30:00,74.9,71.0,29.88,NNE,16,0.0,-999.0,88,-99.99,,,0.00,weatherlink.com 1.10,2013-07-24 15:30:00,
2013-07-24 10:45:00,75.4,71.0,29.87,NNE,13,0.0,-999.0,87,-99.99,,,0.00,weatherlink.com 1.10,2013-07-24 15:45:00,
2013-07-24 11:00:00,75.1,71.0,29.88,NNW,345,0.0,-999.0,87,-99.99,,,0.00,weatherlink.com 1.10,2013-07-24 16:00:00,
2013-07-24 11:15:00,75.3,71.0,29.88,North,355,0.0,-999.0,85,-99.99,,,0.00,weatherlink.com 1.10,2013-07-24 16:15:00,
2013-07-24 11:30:00,76.0,71.0,29.88,NNW,346,0.0,-999.0,85,-99.99,,,0.00,weatherlink.com 1.10,2013-07-24 16:30:00,
2013-07-24 11:45:00,76.4,71.0,29.88,North,10,0.0,-999.0,83,-99.99,,,0.00,weatherlink.com 1.10,2013-07-24 16:45:00,
2013-07-24 12:00:00,76.7,71.0,29.89,North,360,0.0,-999.0,83,-99.99,,,0.00,weatherlink.com 1.10,2013-07-24 17:00:00,
2013-07-24 12:15:00,77.3,71.0,29.88,WSW,243,0.0,-999.0,82,-99.99,,,0.00,weatherlink.com 1.10,2013-07-24 17:15:00,
2013-07-24 12:30:00,77.6,71.0,29.88,WSW,239,0.0,-999.0,81,-99.99,,,0.00,weatherlink.com 1.10,2013-07-24 17:30:00,
2013-07-24 12:45:00,78.7,72.0,29.88,NNW,337,0.0,-999.0,81,-99.99,,,0.00,weatherlink.com 1.10,2013-07-24 17:45:00,
2013-07-24 13:00:00,79.0,72.0,29.88,North,355,0.0,-999.0,80,-99.99,,,0.00,weatherlink.com 1.10,2013-07-24 18:00:00,
2013-07-24 13:15:00,80.2,73.0,29.88,North,355,3.0,-999.0,79,-99.99,,,0.00,weatherlink.com 1.10,2013-07-24 18:15:00,
2013-07-24 13:30:00,80.1,73.0,29.88,NNE,17,2.0,-999.0,78,-99.99,,,0.00,weatherlink.com 1.10,2013-07-24 18:30:00,
2013-07-24 13:45:00,79.5,72.0,29.88,NNW,346,0.0,-999.0,78,-99.99,,,0.00,weatherlink.com 1.10,2013-07-24 18:45:00,
2013-07-24 14:00:00,79.3,72.0,29.88,North,355,1.0,-999.0,77,-99.99,,,0.00,weatherlink.com 1.10,2013-07-24 19:00:00,
2013-07-24 14:15:00,80.2,71.0,29.87,NW,325,3.0,-999.0,74,-99.99,,,0.00,weatherlink.com 1.10,2013-07-24 19:15:00,
2013-07-24 14:30:00,80.3,71.0,29.87,North,351,0.0,-999.0,72,-99.99,,,0.00,weatherlink.com 1.10,2013-07-24 19:30:00,
2013-07-24 14:45:00,81.6,72.0,29.87,North,360,0.0,-999.0,73,-99.99,,,0.00,weatherlink.com 1.10,2013-07-24 19:45:00,
2013-07-24 15:00:00,81.9,71.0,29.87,North,360,2.0,-999.0,69,-99.99,,,0.00,weatherlink.com 1.10,2013-07-24 20:00:00,
2013-07-24 15:15:00,82.1,70.0,29.87,NNW,333,0.0,-999.0,66,-99.99,,,0.00,weatherlink.com 1.10,2013-07-24 20:15:00,
2013-07-24 15:30:00,81.8,70.0,29.87,North,355,0.0,-999.0,67,-99.99,,,0.00,weatherlink.com 1.10,2013-07-24 20:30:00,
2013-07-24 15:45:00,82.1,70.0,29.86,North,350,2.0,-999.0,67,-99.99,,,0.00,weatherlink.com 1.10,2013-07-24 20:45:00,
2013-07-24 16:00:00,82.0,69.0,29.86,NNE,16,1.0,-999.0,65,-99.99,,,0.00,weatherlink.com 1.10,2013-07-24 21:00:00,
2013-07-24 16:15:00,82.2,68.0,29.86,NW,320,0.0,-999.0,63,-99.99,,,0.00,weatherlink.com 1.10,2013-07-24 21:15:00,
2013-07-24 16:30:00,81.5,70.0,29.86,North,355,2.0,-999.0,67,-99.99,,,0.00,weatherlink.com 1.10,2013-07-24 21:30:00,
2013-07-24 16:45:00,81.5,68.0,29.86,NNW,334,0.0,-999.0,63,-99.99,,,0.00,weatherlink.com 1.10,2013-07-24 21:45:00,
2013-07-24 17:00:00,81.2,69.0,29.86,NNW,341,0.0,-999.0,66,-99.99,,,0.00,weatherlink.com 1.10,2013-07-24 22:00:00,
2013-07-24 17:15:00,81.1,68.0,29.86,NW,324,1.0,-999.0,65,-99.99,,,0.00,weatherlink.com 1.10,2013-07-24 22:15:00,
2013-07-24 17:30:00,81.4,68.0,29.86,NNW,333,0.0,-999.0,64,-99.99,,,0.00,weatherlink.com 1.10,2013-07-24 22:30:00,
2013-07-24 17:45:00,81.4,68.0,29.86,NNW,346,0.0,-999.0,63,-99.99,,,0.00,weatherlink.com 1.10,2013-07-24 22:45:00,
2013-07-24 18:00:00,81.0,67.0,29.86,NW,326,0.0,-999.0,63,-99.99,,,0.00,weatherlink.com 1.10,2013-07-24 23:00:00,
2013-07-24 18:15:00,80.3,67.0,29.86,NNW,341,7.0,-999.0,65,-99.99,,,0.00,weatherlink.com 1.10,2013-07-24 23:15:00,
2013-07-24 18:30:00,79.8,67.0,29.87,NNW,345,4.0,-999.0,65,-99.99,,,0.00,weatherlink.com 1.10,2013-07-24 23:30:00,
2013-07-24 18:45:00,79.3,67.0,29.87,North,355,0.0,-999.0,66,-99.99,,,0.00,weatherlink.com 1.10,2013-07-24 23:45:00,
2013-07-24 19:00:00,78.8,67.0,29.87,NNW,348,0.0,-999.0,68,-99.99,,,0.00,weatherlink.com 1.10,2013-07-25 00:00:00,
2013-07-24 19:15:00,78.2,67.0,29.88,North,350,0.0,-999.0,68,-99.99,,,0.00,weatherlink.com 1.10,2013-07-25 00:15:00,
2013-07-24 19:30:00,77.3,66.0,29.88,North,350,0.0,-999.0,69,-99.99,,,0.00,weatherlink.com 1.10,2013-07-25 00:30:00,
2013-07-24 19:45:00,76.2,66.0,29.89,North,349,0.0,-999.0,70,-99.99,,,0.00,weatherlink.com 1.10,2013-07-25 00:45:00,
2013-07-24 20:00:00,74.8,65.0,29.89,North,349,0.0,-999.0,72,-99.99,,,0.00,weatherlink.com 1.10,2013-07-25 01:00:00,
2013-07-24 20:15:00,73.8,65.0,29.89,North,349,0.0,-999.0,74,-99.99,,,0.00,weatherlink.com 1.10,2013-07-25 01:15:00,
2013-07-24 20:30:00,72.8,65.0,29.89,North,349,0.0,-999.0,76,-99.99,,,0.00,weatherlink.com 1.10,2013-07-25 01:30:00,
2013-07-24 20:45:00,72.0,65.0,29.90,North,349,0.0,-999.0,78,-99.99,,,0.00,weatherlink.com 1.10,2013-07-25 01:45:00,
2013-07-24 21:00:00,71.2,64.0,29.90,North,349,0.0,-999.0,79,-99.99,,,0.00,weatherlink.com 1.10,2013-07-25 02:00:00,
2013-07-24 21:15:00,70.7,64.0,29.90,North,349,0.0,-999.0,80,-99.99,,,0.00,weatherlink.com 1.10,2013-07-25 02:15:00,
2013-07-24 21:30:00,70.3,64.0,29.91,NNW,337,0.0,-999.0,81,-99.99,,,0.00,weatherlink.com 1.10,2013-07-25 02:30:00,
2013-07-24 21:45:00,69.9,64.0,29.92,NNW,336,0.0,-999.0,82,-99.99,,,0.00,weatherlink.com 1.10,2013-07-25 02:45:00,
2013-07-24 22:00:00,69.4,64.0,29.92,NNW,336,0.0,-999.0,82,-99.99,,,0.00,weatherlink.com 1.10,2013-07-25 03:00:00,
2013-07-24 22:15:00,69.2,64.0,29.92,NNW,336,0.0,-999.0,83,-99.99,,,0.00,weatherlink.com 1.10,2013-07-25 03:15:00,
2013-07-24 22:30:00,68.8,64.0,29.93,NNW,336,0.0,-999.0,83,-99.99,,,0.00,weatherlink.com 1.10,2013-07-25 03:30:00,
2013-07-24 22:45:00,68.3,63.0,29.93,NNW,336,0.0,-999.0,84,-99.99,,,0.00,weatherlink.com 1.10,2013-07-25 03:45:00,
2013-07-24 23:01:00,67.7,63.0,29.94,NNW,336,0.0,-999.0,86,-99.99,,,0.00,weatherlink.com 1.10,2013-07-25 04:01:00,
2013-07-24 23:16:00,67.1,63.0,29.94,NNW,336,0.0,-999.0,86,-99.99,,,0.00,weatherlink.com 1.10,2013-07-25 04:16:00,
2013-07-24 23:31:00,66.9,63.0,29.94,NNW,336,0.0,-999.0,87,-99.99,,,0.00,weatherlink.com 1.10,2013-07-25 04:31:00,
2013-07-24 23:46:00,66.6,63.0,29.93,NNW,336,0.0,-999.0,87,-99.99,,,0.00,weatherlink.com 1.10,2013-07-25 04:46:00,